sat.trackr.live / text

‹ back to catalog

STARLINK-33898

NORAD 64002 · 2025-101J

PAYLOAD ACTIVE UNKNOWN

§ Identity

Operator
Country
US
Launch date
2025-05-14
Launch site
AFETR
Launch vehicle
Mass (kg)
RCS (m²)

Purposes: comms

External: N2YO · Heavens-Above · Gunter

§ Orbital elements

Epoch: 2026-05-24T10:08:04.156512Z

Period
94.27 min
Inclination
42.9934°
Eccentricity
0.0000539
Mean motion
15.27582255 rev/d
Perigee alt
482.7 km
Apogee alt
483.4 km
Semi-major
6,861.2 km
B*
1.0366e-3
RAAN
290.6093°
Arg perigee
15.6284°
Mean anomaly
344.4584°
Rev number
5,863

§ Raw data

STARLINK-338981 64002U 25101J   26144.42227033  .00028374  00000+0  10366-2 0  99922 64002  42.9934 290.6093 0000539  15.6284 344.4584 15.27582255 58633

JSON: /api/v1/satellites/64002 · /tle

For live sub-satellite position, see the globe view (requires WebGL).

§ Visibility from observer

Set your observer location to see the next 7 days of passes ≥ 10°. The values pass through the URL so the page stays shareable.

No JS? Fill the form by hand. The geolocation button needs JavaScript.